Weather Roundup
Issued by NWS Chicago, IL

Home | Current Version | Previous Version | Text Only | Print | Product List | Glossary On
Versions: 1 2 3 4 5 6 7 8 9 10 11 12 13 14 15 16 17 18 19 20 21 22 23 24 25 26 27 28 29 30 31 32 33 34 35 36 37 38 39 40 41 42 43 44 45 46 47 48 49 50
000
NZUS59 KLOT 240309
HRRLOT

CHICAGO AREA WEATHER ROUNDUP
NATIONAL WEATHER SERVICE CHICAGO/ROMEOVILLE IL
1000 PM CDT MON MAY 23 2022

NOTE: "FAIR" INDICATES FEW OR NO CLOUDS BELOW 12,000 FEET WITH NO
SIGNIFICANT WEATHER AND/OR OBSTRUCTIONS TO VISIBILITY.

* THESE STATIONS ARE NOT UNDER NWS QUALITY CONTROL. THEY ALSO MAY NOT
  REPORT WEATHER SUCH AS PRECIPITATION OR FOG.

ILZ005-006-012>014-019>023-240400-
NORTHEAST ILLINOIS

CITY           SKY/WX    TMP DP  RH WIND       PRES   REMARKS
OHARE          MOCLDY    52  35  52 NE13      30.26S
MIDWAY         MOCLDY    53  34  48 NE7       30.26S
AURORA         MOCLDY    52  34  50 E10       30.25S
LANSING*       PTCLDY    49  37  63 NE8       30.27R
JOLIET*        MOCLDY    54  36  50 NE8       30.26S
WAUKEGAN       MOCLDY    48  40  73 NE8       30.27S
DUPAGE AIRPORT MOCLDY    51  33  50 NE7       30.25S
WHEELING       MOCLDY    52  39  61 NE6       30.28S
MORRIS*        MOCLDY    53  38  57 NE3       30.24S
LEWIS AIRPORT* MOCLDY    51  37  57 NE10      30.26S
NORTHERLY ISL*   N/A     50  39  66 N9          N/A
$$

WIZ051-052-058>065-066-070>072-240400-
SOUTHEAST WISCONSIN

CITY           SKY/WX    TMP DP  RH WIND       PRES   REMARKS
MILWAUKEE      CLOUDY    49  39  68 NE8       30.29S
KENOSHA*       MOCLDY    49  38  65 NE5       30.28S
RACINE*        MOCLDY    48  39  71 N8        30.30S
BURLINGTON       N/A     49  35  58 NE5       30.29R
WAUKESHA       MOCLDY    46  34  61 NE5       30.30S
WEST BEND      MOCLDY    46  36  66 CALM      30.30S
$$

INZ001>003-010>013-019-020-240400-
NORTHWEST INDIANA

CITY           SKY/WX    TMP DP  RH WIND       PRES   REMARKS
GARY*          NOT AVBL
MICHIGAN CITY* NOT AVBL
RENSSELAER*    NOT AVBL
VALPARAISO     PTCLDY    49  40  71 N7        30.25S
$$

LMZ740>746-240400-
SOUTHERN LAKE MICHIGAN

STATION/POSITION TIME  SKY/WX   TEMP WIND        PRES    VSBY
                                AIR  DIR/SP/G
                 (UTC)          (F)  (DEG/KT/KT) (MB)    (MI)
HARRISON CRIB    0240            50   40/ 16/ 17   N/A
NORTHERLY ISL    0300            50   30/ 12/ 13   N/A
CALUMET HARBOR   0224            50   10/ 12/ 15 1023.4
BURNS HARBOR     0240            51   40/ 10/ 11 1024.7F
MICHIGAN CITY    0240            52   40/ 18/ 20   N/A
$$

ABBREVIATIONS USED IN REMARKS
   TC - TEMPERATURE IN CELSIUS
  WCI - WIND CHILL INDEX
   HX - HEAT INDEX
  VSB - VISIBILITY
$$



USA.gov is the U.S. government's official web portal to all federal, state and local government web resources and services.